Location: Campo Claro
(10.4907°N, 66.8285°W)
Time: 07:10:07
(UTC+00:00)

Cosmos 2228 Rocket - Pass Details

Date: 08 December 2021
Orbit: 618 x 651 km, 82.5° (Epoch: 24 January)

Event Time Altitude Azimuth Distance (km) Brightness Sun altitude
Rises 23:01:28 0° 187° (S) 2,886 6.9 -13.6°
Reaches altitude 10° 23:03:41 10° 188° (S) 1,978 6.0 -14.1°
Maximum altitude 23:08:03 77° 274° (W) 636 3.2 -15.1°
Drops below altitude 10° 23:12:26 10° 0° (N) 1,976 5.4 -16.1°
Enters shadow 23:14:30 - 2° (N) 2,818 6.2 -16.6°
